Ord, NE

9:16 PM CST on November 13, 2019 (GMT -0600)
Sharp

Weather History for KODX - October, 2019

Change the Weather History Date:

Sunday, October 20, 2019

  Actual Average Record
Temperature  
Mean Temperature 48 °F 48 °F  
Max Temperature 64 °F 61 °F 82 °F (2003)
Min Temperature 32 °F 35 °F 20 °F (2011)
Degree Days  
Heating Degree Days 17 17  
Month to date heating degree days 342 270  
Since 1 July heating degree days 376 407  
Cooling Degree Days 0 0  
Month to date cooling degree days 0 6  
Year to date cooling degree days 837 844  
Moisture  
Dew Point 34 °F    
Average Humidity 56    
Maximum Humidity 82    
Minimum Humidity 30    
Precipitation  
Precipitation 0.00 in 0.06 in 1.77 in (1900)
Month to date precipitation 1.78 1.36  
Year to date precipitation 35.83 22.71  
Sea Level Pressure  
Sea Level Pressure 29.59 in    
Wind  
Wind Speed 10 mph (South)    
Max Wind Speed 29 mph    
Max Gust Speed 38 mph    
Visibility 10 miles    
Events      
T = Trace of Precipitation, MM = Missing Value Source: NWS Daily Summary

Daily Weather History Graph

Daily Weather History Graph

Search for Another Location

Airport or City:

Astronomy

Oct. 20, 2019 Rise Set
Actual Time 7:53 AM CDT 6:47 PM CDT
Civil Twilight 7:25 AM CDT 7:15 PM CDT
Nautical Twilight 6:52 AM CDT 7:47 PM CDT
Astronomical Twilight 6:20 AM CDT 8:19 PM CDT
Moon 11:54 PM CDT (10/20) 2:25 PM CDT (10/20)
Length of Visible Light 11h 50m
Length of Day
10h 53m
Waning Gibbous, 59% of the Moon is Illuminated
Oct 20
Waning Gibbous
Oct 21
Last Quarter
Oct 27
New
Nov 4
First Quarter
Nov 12
Full

Hourly Weather History & Observations

Time (CDT) Temp. Windchill Dew Point Humidity Pressure Visibility Wind Dir Wind Speed Gust Speed Precip Events Conditions
12:53 AM 36.0 °F - 30.0 °F 79% 29.73 in 10.0 mi Calm Calm - N/A   Clear
1:53 AM 34.0 °F - 28.9 °F 82% 29.72 in 10.0 mi Calm Calm - N/A   Clear
2:53 AM 37.9 °F 33.5 °F 32.0 °F 79% 29.70 in 10.0 mi ESE 5.8 mph - N/A   Clear
3:53 AM 39.9 °F 36.7 °F 34.0 °F 79% 29.68 in 10.0 mi ESE 4.6 mph - N/A   Clear
4:53 AM 41.0 °F 36.4 °F 36.0 °F 82% 29.66 in 10.0 mi East 6.9 mph - N/A   Clear
5:53 AM 43.0 °F 40.3 °F 37.0 °F 80% 29.63 in 10.0 mi SSE 4.6 mph - N/A   Clear
6:53 AM 44.1 °F 41.5 °F 37.9 °F 79% 29.63 in 10.0 mi East 4.6 mph - N/A   Overcast
7:53 AM 48.9 °F - 37.0 °F 64% 29.62 in 10.0 mi SE 9.2 mph - N/A   Overcast
8:53 AM 51.1 °F - 37.9 °F 61% 29.62 in 10.0 mi SSE 11.5 mph - N/A   Overcast
9:53 AM 53.1 °F - 39.0 °F 59% 29.63 in 10.0 mi SSE 10.4 mph - N/A   Scattered Clouds
10:53 AM 55.0 °F - 39.9 °F 57% 29.62 in 10.0 mi South 10.4 mph 21.9 mph N/A   Clear
11:53 AM 59.0 °F - 39.0 °F 48% 29.61 in 10.0 mi South 15.0 mph 24.2 mph N/A   Partly Cloudy
12:53 PM 63.0 °F - 39.9 °F 43% 29.57 in 10.0 mi South 26.5 mph 35.7 mph N/A   Clear
1:53 PM 59.0 °F - 41.0 °F 51% 29.55 in 10.0 mi South 12.7 mph 27.6 mph N/A   Overcast
2:53 PM 59.0 °F - 42.1 °F 53% 29.53 in 10.0 mi South 17.3 mph 25.3 mph N/A   Overcast
3:53 PM 61.0 °F - 37.9 °F 42% 29.51 in 10.0 mi SSW 16.1 mph 31.1 mph N/A   Mostly Cloudy
4:53 PM 59.0 °F - 28.0 °F 31% 29.51 in 10.0 mi North - - N/A   Scattered Clouds
5:53 PM 57.0 °F - 27.0 °F 32% 29.53 in 10.0 mi WSW 17.3 mph 25.3 mph N/A   Mostly Cloudy
6:53 PM 50.0 °F - 27.0 °F 41% 29.54 in 10.0 mi SSW 6.9 mph - N/A   Partly Cloudy
7:53 PM 44.1 °F 40.1 °F 26.1 °F 49% 29.53 in 10.0 mi SSW 6.9 mph - N/A   Clear
8:53 PM 44.1 °F 39.5 °F 27.0 °F 51% 29.53 in 10.0 mi SSW 8.1 mph - N/A   Partly Cloudy
9:53 PM 39.0 °F 33.4 °F 27.0 °F 62% 29.52 in 10.0 mi SSW 8.1 mph - N/A   Clear
10:53 PM 43.0 °F 36.8 °F 32.0 °F 65% 29.49 in 10.0 mi WSW 11.5 mph - N/A   Clear
11:53 PM 45.0 °F 40.1 °F 36.0 °F 71% 29.48 in 10.0 mi WSW 9.2 mph - N/A   Mostly Cloudy